User: anonymous   Login
Location: Oshawa
(43.9000°N, 78.8670°W)
Time: 17:45:17
(UTC-04:00)
Language:

PAYLOAD A - Orbit

View from above orbital plane
View from above orbital plane
View from above satellite
View from above satellite

Ground track
Ground track

The orbit data is extracted from the following two-line orbital elements,

1 27840U 03031A   15244.94387248 -.00000006 +00000-0 +11956-4 0  9992
2 27840 098.2060 260.1089 0097139 291.7244 127.5433 14.38819660639135
Epoch (UTC): 01 September 2015 22:39:10
Eccentricity: 0.0097139
inclination: 98.2060°
perigee height: 693 km
apogee height: 832 km
right ascension of ascending node: 260.1089°
argument of perigee: 291.7244°
revolutions per day: 14.38819660
mean anomaly at epoch: 127.5433°
orbit number at epoch: 63913

The dashed part of the orbit path shows where the satellite is in the earth's shadow,  

DLR